Istanbul, Turkey

3:33 AM EEST on September 26, 2016 (GMT +0300)
Ataturk

Weather History for LTBA - November, 2013

Change the Weather History Date:

Thursday, November 14, 2013

  Actual Average Record
Temperature  
Mean Temperature 58 °F -  
Max Temperature 60 °F 58 °F 73 °F (2010)
Min Temperature 55 °F 47 °F 37 °F (2006)
Degree Days  
Heating Degree Days 8    
Growing Degree Days 8 (Base 50)    
Moisture  
Dew Point 48 °F    
Average Humidity 71    
Maximum Humidity 82    
Minimum Humidity 54    
Precipitation  
Precipitation 0.00 in - - ()
Sea Level Pressure  
Sea Level Pressure 30.08 in    
Wind  
Wind Speed 12 mph ()    
Max Wind Speed 17 mph    
Max Gust Speed 28 mph    
Visibility 6.2 miles    
Events      
Averages and records for this station are not official NWS values.
T = Trace of Precipitation, MM = Missing Value Source: Averaged Metar Reports

Daily Weather History Graph

Daily Weather History Graph

Search for Another Location

Airport or City:

Trip Planner

Search our weather history database for the weather conditions in past years. The results will help you decide how hot, cold, wet, or windy it might be!

Date:

Astronomy

Nov. 14, 2013 Rise Set
Actual Time 6:50 AM EET 4:46 PM EET
Civil Twilight 6:21 AM EET 5:16 PM EET
Nautical Twilight 5:48 AM EET 5:49 PM EET
Astronomical Twilight 5:15 AM EET 6:22 PM EET
Moon 2:58 PM EET (11/14) 3:24 AM EET (11/14)
Length of Visible Light 10h 54m
Length of Day
9h 56m
Waxing Gibbous, 89% of the Moon is Illuminated
Nov 14
Waxing Gibbous
Nov 17
Full
Nov 25
Last Quarter
Dec 3
New
Dec 9
First Quarter

Hourly Weather History & Observations

Time (EET) Temp. Dew Point Humidity Pressure Visibility Wind Dir Wind Speed Gust Speed Precip Events Conditions
12:20 AM 57.2 °F 50.0 °F 77% 30.09 in 6.2 mi NE 11.5 mph - N/A   Mostly Cloudy
12:50 AM 57.2 °F 48.2 °F 72% 30.09 in 6.2 mi NE 11.5 mph - N/A   Mostly Cloudy
1:20 AM 59.0 °F 48.2 °F 67% 30.09 in 6.2 mi Variable 8.1 mph - N/A   Mostly Cloudy
1:50 AM 57.2 °F 50.0 °F 77% 30.09 in 6.2 mi NE 12.7 mph - N/A   Mostly Cloudy
2:00 AM 56 °F 49 °F 71% 30.12 in 6 mi NE 12.7 mph - -   Mostly Cloudy
2:20 AM 57.2 °F 48.2 °F 72% 30.09 in 6.2 mi NE 11.5 mph - N/A   Mostly Cloudy
2:50 AM 57.2 °F 48.2 °F 72% 30.09 in 6.2 mi NE 12.7 mph - N/A   Mostly Cloudy
3:20 AM 55.4 °F 48.2 °F 77% 30.09 in 6.2 mi NE 11.5 mph - N/A   Mostly Cloudy
3:50 AM 55.4 °F 48.2 °F 77% 30.09 in 6.2 mi NE 11.5 mph - N/A   Mostly Cloudy
4:20 AM 55.4 °F 48.2 °F 77% 30.09 in 6.2 mi NE 10.4 mph - N/A   Mostly Cloudy
4:50 AM 55.4 °F 46.4 °F 72% 30.09 in 6.2 mi NE 13.8 mph - N/A   Mostly Cloudy
5:00 AM 56 °F 47 °F 64% 30.10 in 6 mi NE 13.8 mph - -   Mostly Cloudy
5:20 AM 55.4 °F 46.4 °F 72% 30.09 in 6.2 mi NE 12.7 mph - N/A   Mostly Cloudy
5:50 AM 55.4 °F 46.4 °F 72% 30.09 in 6.2 mi NE 12.7 mph - N/A   Mostly Cloudy
6:20 AM 55.4 °F 46.4 °F 72% 30.09 in 6.2 mi NE 11.5 mph - N/A   Mostly Cloudy
6:50 AM 55.4 °F 46.4 °F 72% 30.09 in 6.2 mi NE 10.4 mph - N/A   Mostly Cloudy
7:20 AM 57.2 °F 46.4 °F 67% 30.09 in 6.2 mi NE 13.8 mph - N/A   Mostly Cloudy
7:50 AM 57.2 °F 46.4 °F 67% 30.09 in 6.2 mi NE 13.8 mph - N/A   Mostly Cloudy
8:00 AM 56 °F 47 °F 63% 30.10 in 6 mi NE 13.8 mph - -   Mostly Cloudy
8:20 AM 59.0 °F 46.4 °F 63% 30.09 in 6.2 mi NE 11.5 mph - N/A   Mostly Cloudy
8:50 AM 59.0 °F 46.4 °F 63% 30.09 in 6.2 mi Variable 10.4 mph - N/A   Mostly Cloudy
9:20 AM 59.0 °F 48.2 °F 67% 30.09 in 6.2 mi NE 11.5 mph - N/A   Mostly Cloudy
9:50 AM 59.0 °F 48.2 °F 67% 30.09 in 6.2 mi Variable 12.7 mph - N/A   Mostly Cloudy
10:20 AM 57.2 °F 46.4 °F 67% 30.09 in 6.2 mi NE 13.8 mph - N/A   Mostly Cloudy
10:50 AM 57.2 °F 46.4 °F 67% 30.09 in 6.2 mi NE 13.8 mph - N/A   Mostly Cloudy
11:00 AM 58 °F 46 °F 54% 30.09 in 6 mi NE 13.8 mph - -   Mostly Cloudy
11:20 AM 59.0 °F 48.2 °F 67% 30.09 in 6.2 mi NE 11.5 mph - N/A   Mostly Cloudy
11:50 AM 57.2 °F 48.2 °F 72% 30.06 in 6.2 mi NE 13.8 mph - N/A   Mostly Cloudy
12:20 PM 59.0 °F 48.2 °F 67% 30.06 in 6.2 mi ENE 13.8 mph - N/A   Mostly Cloudy
12:50 PM 57.2 °F 48.2 °F 72% 30.06 in 6.2 mi NNE 17.3 mph - N/A   Mostly Cloudy
1:20 PM 59.0 °F 46.4 °F 63% 30.06 in 6.2 mi NE 13.8 mph - N/A   Mostly Cloudy
1:50 PM 57.2 °F 46.4 °F 67% 30.06 in 6.2 mi NE 16.1 mph - N/A   Mostly Cloudy
2:00 PM 58 °F 47 °F 56% 30.07 in 6 mi NE 16.1 mph - -   Mostly Cloudy
2:20 PM 57.2 °F 48.2 °F 72% 30.06 in 6.2 mi NNE 15.0 mph - N/A   Mostly Cloudy
2:50 PM 59.0 °F 46.4 °F 63% 30.06 in 6.2 mi Variable 15.0 mph - N/A   Mostly Cloudy
3:20 PM 55.4 °F 46.4 °F 72% 30.06 in 6.2 mi NE 15.0 mph - N/A   Mostly Cloudy
3:50 PM 55.4 °F 46.4 °F 72% 30.04 in 6.2 mi NE 16.1 mph 27.6 mph N/A   Mostly Cloudy
4:20 PM 55.4 °F 46.4 °F 72% 30.06 in 6.2 mi NE 16.1 mph - N/A   Mostly Cloudy
4:50 PM 55.4 °F 48.2 °F 77% 30.06 in 6.2 mi NNE 15.0 mph - N/A   Mostly Cloudy
5:00 PM 55 °F 47 °F 67% 30.07 in 6 mi NNE 15.0 mph - -   Mostly Cloudy
5:20 PM 55.4 °F 48.2 °F 77% 30.06 in 6.2 mi NNE 17.3 mph - N/A   Mostly Cloudy
5:50 PM 55.4 °F 48.2 °F 77% 30.06 in 6.2 mi NE 12.7 mph - N/A   Mostly Cloudy
6:20 PM 55.4 °F 48.2 °F 77% 30.06 in 6.2 mi NE 15.0 mph - N/A   Mostly Cloudy
6:50 PM 57.2 °F 48.2 °F 72% 30.06 in 6.2 mi NE 13.8 mph - N/A   Mostly Cloudy
7:20 PM 57.2 °F 48.2 °F 72% 30.06 in 6.2 mi NE 15.0 mph - N/A   Mostly Cloudy
7:50 PM 55.4 °F 48.2 °F 77% 30.06 in 6.2 mi NE 16.1 mph - N/A   Mostly Cloudy
8:00 PM 56 °F 49 °F 69% 30.07 in 6 mi NE 16.1 mph - -   Mostly Cloudy
8:20 PM 57.2 °F 48.2 °F 72% 30.06 in 6.2 mi NE 15.0 mph - N/A   Mostly Cloudy
8:50 PM 57.2 °F 48.2 °F 72% 30.06 in 6.2 mi NE 16.1 mph - N/A   Mostly Cloudy
9:20 PM 57.2 °F 48.2 °F 72% 30.06 in 6.2 mi NE 15.0 mph - N/A   Mostly Cloudy
9:50 PM 55.4 °F 48.2 °F 77% 30.06 in 6.2 mi NE 13.8 mph - N/A   Mostly Cloudy
10:20 PM 55.4 °F 50.0 °F 82% 30.06 in 6.2 mi NE 13.8 mph - N/A   Mostly Cloudy
10:50 PM 57.2 °F 50.0 °F 77% 30.06 in 6.2 mi NE 11.5 mph - N/A   Mostly Cloudy
11:00 PM 56 °F 49 °F 71% 30.07 in 6 mi NE 11.5 mph - -   Mostly Cloudy
11:20 PM 57.2 °F 50.0 °F 77% 30.06 in 6.2 mi NE 12.7 mph - N/A   Mostly Cloudy
11:50 PM 57.2 °F 50.0 °F 77% 30.06 in 6.2 mi NE 12.7 mph - N/A   Mostly Cloudy